This is the latest recevied weather packets stored in our database for station/object K6CEG. If no packets are shown the sender has not sent any weather packets the latest 10 day(s).
| Time | Temp. | Humidity | Pressure | Rain* | Wind** | Luminosity | Snow |
|---|---|---|---|---|---|---|---|
| 1788018213 | 28.33° C | 58% | 1014.8 hPa | 0 mm | - | 240 W/m² | - |
| 1788017910 | 28.33° C | 58% | 1014.8 hPa | 0 mm | - | 215 W/m² | - |
| 1788017606 | 27.78° C | 60% | 1014.8 hPa | 0 mm | - | 214 W/m² | - |
| 1788017302 | 27.78° C | 60% | 1014.7 hPa | 0 mm | - | 203 W/m² | - |
| 1788016998 | 26.67° C | 63% | 1014.8 hPa | 0 mm | - | 187 W/m² | - |
| 1788016697 | 26.67° C | 63% | 1014.6 hPa | 0 mm | - | 179 W/m² | - |
| 1788016396 | 26.67° C | 64% | 1014.7 hPa | 0 mm | - | 157 W/m² | - |
| 1788016096 | 26.11° C | 64% | 1014.7 hPa | 0 mm | - | 146 W/m² | - |
| 1788015794 | 26.11° C | 65% | 1014.8 hPa | 0 mm | - | 111 W/m² | - |
| 1788015490 | 25.56° C | 66% | 1014.6 hPa | 0 mm | - | 60 W/m² | - |
| 1788015185 | 25° C | 66% | 1014.7 hPa | 0 mm | - | 104 W/m² | - |
| 1788014883 | 25° C | 67% | 1014.8 hPa | 0 mm | - | 68 W/m² | - |
| 1788014578 | 24.44° C | 67% | 1014.7 hPa | 0 mm | - | 46 W/m² | - |
| 1788014273 | 23.89° C | 68% | 1014.7 hPa | 0 mm | - | 36 W/m² | - |
| 1788013968 | 23.89° C | 69% | 1014.6 hPa | 0 mm | - | 29 W/m² | - |
| 1788013663 | 23.89° C | 69% | 1014.4 hPa | 0 mm | - | 21 W/m² | - |
| 1788013358 | 23.89° C | 70% | 1014.3 hPa | 0 mm | - | 18 W/m² | - |
| 1788013057 | 23.33° C | 70% | 1014.4 hPa | 0 mm | - | 19 W/m² | - |
| 1788012756 | 23.33° C | 70% | 1014.3 hPa | 0 mm | - | 19 W/m² | - |
| 1788012452 | 23.33° C | 70% | 1014.5 hPa | 0 mm | - | 15 W/m² | - |
| 1788012151 | 23.33° C | 70% | 1014.5 hPa | 0 mm | - | 13 W/m² | - |
| 1788011850 | 23.33° C | 70% | 1014.3 hPa | 0 mm | - | 11 W/m² | - |
| 1788011550 | 22.78° C | 70% | 1014.3 hPa | 0 mm | - | 9 W/m² | - |
| 1788011245 | 23.33° C | 69% | 1014.3 hPa | 0 mm | - | 8 W/m² | - |
| 1788010944 | 23.33° C | 69% | 1014.2 hPa | 0 mm | - | 7 W/m² | - |
* Rain latest hour (hover to see other rain measurements)
** Current wind speed in m/s (hover to see current wind gust speed)